Date,TemperatureHighF,TemperatureAvgF,TemperatureLowF,DewpointHighF,DewpointAvgF,DewpointLowF,HumidityHigh,HumidityAvg,HumidityLow,PressureMaxIn,PressureMinIn,WindSpeedMaxMPH,WindSpeedAvgMPH,GustSpeedMaxMPH,PrecipitationSumIn
2014-1-1,31,26,18,-100,-100,-100,0,0,100,0.00,40.00,0,-999,0,0.00
2014-1-2,29,24,13,-100,-100,-100,0,0,100,0.00,40.00,0,-999,0,0.00
2014-1-3,15,11,2,-100,-100,-100,0,0,100,0.00,40.00,0,-999,0,0.00
2014-1-4,24,9,-5,-100,-100,-100,0,0,100,0.00,40.00,0,-999,0,0.00
2014-1-5,42,20,3,-100,-100,-100,0,0,100,0.00,40.00,0,-999,0,0.00
2014-1-6,49,34,13,-100,-100,-100,0,0,100,0.00,40.00,0,-999,0,0.00
2014-1-7,9,5,1,-100,-100,-100,0,0,100,0.00,40.00,0,-999,0,0.00
2014-1-8,18,11,5,-100,-100,-100,0,0,100,0.00,40.00,0,-999,0,0.00
2014-1-9,28,18,13,-100,-100,-100,0,0,100,0.00,40.00,0,-999,0,0.00
2014-1-10,33,29,20,-100,-100,-100,0,0,100,0.00,40.00,0,-999,0,0.00
2014-1-11,58,46,33,-100,-100,-100,0,0,100,0.00,40.00,0,-999,0,0.00
2014-1-12,49,41,30,-100,-100,-100,0,0,100,0.00,40.00,0,-999,0,0.00
2014-1-13,50,36,25,-100,-100,-100,0,0,100,0.00,40.00,0,-999,0,0.00
2014-1-14,45,42,35,-100,-100,-100,0,0,100,0.00,40.00,0,-999,0,0.00
2014-1-15,43,36,30,-100,-100,-100,0,0,100,0.00,40.00,0,-999,0,0.00
2014-1-16,37,33,27,-100,-100,-100,0,0,100,0.00,40.00,0,-999,0,0.00
2014-1-17,39,29,22,-100,-100,-100,0,0,100,0.00,40.00,0,-999,0,0.00
2014-1-18,35,30,23,-100,-100,-100,0,0,100,0.00,40.00,0,-999,0,0.00
2014-1-19,34,26,19,-100,-100,-100,0,0,100,0.00,40.00,0,-999,0,0.00
2014-1-20,40,33,26,-100,-100,-100,0,0,100,0.00,40.00,0,-999,0,0.00
2014-1-21,29,18,11,-100,-100,-100,0,0,100,0.00,40.00,0,-999,0,0.00
2014-1-22,14,8,1,-100,-100,-100,0,0,100,0.00,40.00,0,-999,0,0.00
2014-1-23,18,9,-1,-100,-100,-100,0,0,100,0.00,40.00,0,-999,0,0.00
2014-1-24,17,12,6,-100,-100,-100,0,0,100,0.00,40.00,0,-999,0,0.00
2014-1-25,22,17,8,-100,-100,-100,0,0,100,0.00,40.00,0,-999,0,0.00
2014-1-26,22,18,8,-100,-100,-100,0,0,100,0.00,40.00,0,-999,0,0.00
2014-1-27,37,24,17,-100,-100,-100,0,0,100,0.00,40.00,0,-999,0,0.00
2014-1-28,17,12,9,-100,-100,-100,0,0,100,0.00,40.00,0,-999,0,0.00
2014-1-29,20,12,7,-100,-100,-100,0,0,100,0.00,40.00,0,-999,0,0.00
2014-1-30,26,12,-2,-100,-100,-100,0,0,100,0.00,40.00,0,-999,0,0.00
2014-1-31,32,24,11,-100,-100,-100,0,0,100,0.00,40.00,0,-999,0,0.00
2014-2-1,43,32,22,-100,-100,-100,0,0,100,0.00,40.00,0,-999,0,0.00
2014-2-2,46,34,24,-100,-100,-100,0,0,100,0.00,40.00,0,-999,0,0.00
2014-2-3,38,31,21,-100,-100,-100,0,0,100,0.00,40.00,0,-999,0,0.00
2014-2-4,31,22,9,-100,-100,-100,0,0,100,0.00,40.00,0,-999,0,0.00
2014-2-5,34,31,27,-100,-100,-100,0,0,100,0.00,40.00,0,-999,0,0.00
2014-2-6,28,21,16,-100,-100,-100,0,0,100,0.00,40.00,0,-999,0,0.00
2014-2-7,30,21,13,-100,-100,-100,0,0,100,0.00,40.00,0,-999,0,0.00
2014-2-8,26,20,11,-100,-100,-100,0,0,100,0.00,40.00,0,-999,0,0.00
2014-2-9,27,19,9,-100,-100,-100,0,0,100,0.00,40.00,0,-999,0,0.00
2014-2-10,27,19,6,-100,-100,-100,0,0,100,0.00,40.00,0,-999,0,0.00
2014-2-11,24,12,-3,-100,-100,-100,0,0,100,0.00,40.00,0,-999,0,0.00
2014-2-12,23,14,-2,-100,-100,-100,0,0,100,0.00,40.00,0,-999,0,0.00
2014-2-13,33,28,20,-100,-100,-100,0,0,100,0.00,40.00,0,-999,0,0.00
2014-2-14,39,33,25,-100,-100,-100,0,0,100,0.00,40.00,0,-999,0,0.00
2014-2-15,36,30,23,-100,-100,-100,0,0,100,0.00,40.00,0,-999,0,0.00
2014-2-16,25,21,16,-100,-100,-100,0,0,100,0.00,40.00,0,-999,0,0.00
2014-2-17,30,20,11,-100,-100,-100,0,0,100,0.00,40.00,0,-999,0,0.00
2014-2-18,37,28,17,-100,-100,-100,0,0,100,0.00,40.00,0,-999,0,0.00
2014-2-19,43,31,19,-100,-100,-100,0,0,100,0.00,40.00,0,-999,0,0.00
2014-2-20,48,37,23,-100,-100,-100,0,0,100,0.00,40.00,0,-999,0,0.00
2014-2-21,43,37,29,-100,-100,-100,0,0,100,0.00,40.00,0,-999,0,0.00
2014-2-22,53,36,23,-100,-100,-100,0,0,100,0.00,40.00,0,-999,0,0.00
2014-2-23,51,38,25,-100,-100,-100,0,0,100,0.00,40.00,0,-999,0,0.00
2014-2-24,40,33,26,-100,-100,-100,0,0,100,0.00,40.00,0,-999,0,0.00
2014-2-25,30,24,17,-100,-100,-100,0,0,100,0.00,40.00,0,-999,0,0.00
2014-2-26,27,21,10,-100,-100,-100,0,0,100,0.00,40.00,0,-999,0,0.00
2014-2-27,29,16,3,-100,-100,-100,0,0,100,0.00,40.00,0,-999,0,0.00
2014-2-28,20,12,4,-100,-100,-100,0,0,100,0.00,40.00,0,-999,0,0.00
2014-3-1,34,21,4,-100,-100,-100,0,0,100,0.00,40.00,0,-999,0,0.00
2014-3-2,39,32,26,-100,-100,-100,0,0,100,0.00,40.00,0,-999,0,0.00
2014-3-3,28,19,14,-100,-100,-100,0,0,100,0.00,40.00,0,-999,0,0.00
2014-3-4,27,18,9,-100,-100,-100,0,0,100,0.00,40.00,0,-999,0,0.00
2014-3-5,35,27,19,-100,-100,-100,0,0,100,0.00,40.00,0,-999,0,0.00
2014-3-6,29,22,13,-100,-100,-100,0,0,100,0.00,40.00,0,-999,0,0.00
2014-3-7,38,30,20,-100,-100,-100,0,0,100,0.00,40.00,0,-999,0,0.00
2014-3-8,52,40,28,-100,-100,-100,0,0,100,0.00,40.00,0,-999,0,0.00
2014-3-9,41,38,34,-100,-100,-100,0,0,100,0.00,40.00,0,-999,0,0.00
2014-3-10,50,40,34,-100,-100,-100,0,0,100,0.00,40.00,0,-999,0,0.00
2014-3-11,61,43,30,-100,-100,-100,0,0,100,0.00,40.00,0,-999,0,0.00
2014-3-12,55,42,29,-100,-100,-100,0,0,100,0.00,40.00,0,-999,0,0.00
2014-3-13,26,21,16,-100,-100,-100,0,0,100,0.00,40.00,0,-999,0,0.00
2014-3-14,45,30,14,-100,-100,-100,0,0,100,0.00,40.00,0,-999,0,0.00
2014-3-15,54,45,36,-100,-100,-100,0,0,100,0.00,40.00,0,-999,0,0.00
2014-3-16,40,32,28,-100,-100,-100,0,0,100,0.00,40.00,0,-999,0,0.00
2014-3-17,32,27,21,-100,-100,-100,0,0,100,0.00,40.00,0,-999,0,0.00
2014-3-18,43,31,19,-100,-100,-100,0,0,100,0.00,40.00,0,-999,0,0.00
2014-3-19,40,38,37,-100,-100,-100,0,0,100,0.00,40.00,0,-999,0,0.00
2014-3-20,50,43,37,-100,-100,-100,0,0,100,0.00,40.00,0,-999,0,0.00
2014-3-21,50,40,31,-100,-100,-100,0,0,100,0.00,40.00,0,-999,0,0.00
2014-3-22,62,45,29,-100,-100,-100,0,0,100,0.00,40.00,0,-999,0,0.00
2014-3-23,40,36,27,-100,-100,-100,0,0,100,0.00,40.00,0,-999,0,0.00
2014-3-24,32,25,18,-100,-100,-100,0,0,100,0.00,40.00,0,-999,0,0.00
2014-3-25,37,28,17,-100,-100,-100,0,0,100,0.00,40.00,0,-999,0,0.00
2014-3-26,32,29,24,-100,-100,-100,0,0,100,0.00,40.00,0,-999,0,0.00
2014-3-27,43,30,18,-100,-100,-100,0,0,100,0.00,40.00,0,-999,0,0.00
2014-3-28,57,42,32,-100,-100,-100,0,0,100,0.00,40.00,0,-999,0,0.00
2014-3-29,47,44,39,-100,-100,-100,0,0,100,0.00,40.00,0,-999,0,0.00
2014-3-30,47,43,37,-100,-100,-100,0,0,100,0.00,40.00,0,-999,0,0.00
2014-3-31,53,43,35,-100,-100,-100,0,0,100,0.00,40.00,0,-999,0,0.00
2014-4-1,59,45,29,-100,-100,-100,0,0,100,0.00,40.00,0,-999,0,0.00
2014-4-2,54,44,38,-100,-100,-100,0,0,100,0.00,40.00,0,-999,0,0.00
2014-4-3,64,51,37,-100,-100,-100,0,0,100,0.00,40.00,0,-999,0,0.00
2014-4-4,45,41,40,-100,-100,-100,0,0,100,0.00,40.00,0,-999,0,0.00
2014-4-5,50,44,37,-100,-100,-100,0,0,100,0.00,40.00,0,-999,0,0.00
2014-4-6,57,43,29,-100,-100,-100,0,0,100,0.00,40.00,0,-999,0,0.00
2014-4-7,49,41,31,-100,-100,-100,0,0,100,0.00,40.00,0,-999,0,0.00
2014-4-8,61,52,46,-100,-100,-100,0,0,100,0.00,40.00,0,-999,0,0.00
2014-4-9,59,47,32,-100,-100,-100,0,0,100,0.00,40.00,0,-999,0,0.00
2014-4-10,65,48,29,-100,-100,-100,0,0,100,0.00,40.00,0,-999,0,0.00
2014-4-11,74,57,44,-100,-100,-100,0,0,100,0.00,40.00,0,-999,0,0.00
2014-4-12,71,56,40,-100,-100,-100,0,0,100,0.00,40.00,0,-999,0,0.00
2014-4-13,81,63,46,-100,-100,-100,0,0,100,0.00,40.00,0,-999,0,0.00
2014-4-14,76,68,59,-100,-100,-100,0,0,100,0.00,40.00,0,-999,0,0.00
2014-4-15,65,56,33,-100,-100,-100,0,0,100,0.00,40.00,0,-999,0,0.00
2014-4-16,45,36,28,-100,-100,-100,0,0,100,0.00,40.00,0,-999,0,0.00
2014-4-17,47,38,29,-100,-100,-100,0,0,100,0.00,40.00,0,-999,0,0.00
2014-4-18,51,39,30,-100,-100,-100,0,0,100,0.00,40.00,0,-999,0,0.00
2014-4-19,65,50,35,-100,-100,-100,0,0,100,0.00,40.00,0,-999,0,0.00
2014-4-20,58,47,37,-100,-100,-100,0,0,100,0.00,40.00,0,-999,0,0.00
2014-4-21,69,49,30,-100,-100,-100,0,0,100,0.00,40.00,0,-999,0,0.00
2014-4-22,72,55,41,-100,-100,-100,0,0,100,0.00,40.00,0,-999,0,0.00
2014-4-23,57,50,43,-100,-100,-100,0,0,100,0.00,40.00,0,-999,0,0.00
2014-4-24,59,48,40,-100,-100,-100,0,0,100,0.00,40.00,0,-999,0,0.00
2014-4-25,66,50,35,-100,-100,-100,0,0,100,0.00,40.00,0,-999,0,0.00
2014-4-26,65,54,44,-100,-100,-100,0,0,100,0.00,40.00,0,-999,0,0.00
2014-4-27,57,50,43,-100,-100,-100,0,0,100,0.00,40.00,0,-999,0,0.00
2014-4-28,63,50,34,-100,-100,-100,0,0,100,0.00,40.00,0,-999,0,0.00
2014-4-29,53,46,41,-100,-100,-100,0,0,100,0.00,40.00,0,-999,0,0.00
2014-4-30,52,45,41,-100,-100,-100,0,0,100,0.00,40.00,0,-999,0,0.00
2014-5-1,75,62,52,-100,-100,-100,0,0,100,0.00,40.00,0,-999,0,0.00
2014-5-2,64,57,48,-100,-100,-100,0,0,100,0.00,40.00,0,-999,0,0.00
2014-5-3,66,54,40,-100,-100,-100,0,0,100,0.00,40.00,0,-999,0,0.00
2014-5-4,61,54,46,-100,-100,-100,0,0,100,0.00,40.00,0,-999,0,0.00
2014-5-5,66,56,46,-100,-100,-100,0,0,100,0.00,40.00,0,-999,0,0.00
2014-5-6,68,55,42,-100,-100,-100,0,0,100,0.00,40.00,0,-999,0,0.00
2014-5-13,62,56,54,-100,-100,-100,0,0,100,0.00,40.00,0,-999,0,0.00
2014-5-14,72,59,50,-100,-100,-100,0,0,100,0.00,40.00,0,-999,0,0.00
2014-5-15,77,67,59,-100,-100,-100,0,0,100,0.00,40.00,0,-999,0,0.00
2014-5-16,69,66,57,-100,-100,-100,0,0,100,0.00,40.00,0,-999,0,0.00
2014-5-17,65,57,49,-100,-100,-100,0,0,100,0.00,40.00,0,-999,0,0.00
2014-5-18,63,53,40,-100,-100,-100,0,0,100,0.00,40.00,0,-999,0,0.00
2014-5-19,68,53,37,-100,-100,-100,0,0,100,0.00,40.00,0,-999,0,0.00
2014-5-20,76,59,41,-100,-100,-100,0,0,100,0.00,40.00,0,-999,0,0.00
2014-5-21,70,63,57,-100,-100,-100,0,0,100,0.00,40.00,0,-999,0,0.00
2014-5-22,71,63,60,-100,-100,-100,0,0,100,0.00,40.00,0,-999,0,0.00
2014-5-23,70,61,56,-100,-100,-100,0,0,100,0.00,40.00,0,-999,0,0.00
2014-5-24,70,60,54,-100,-100,-100,0,0,100,0.00,40.00,0,-999,0,0.00
2014-5-25,80,64,51,-100,-100,-100,0,0,100,0.00,40.00,0,-999,0,0.00
2014-5-26,83,70,51,-100,-100,-100,0,0,100,0.00,40.00,0,-999,0,0.00
2014-5-27,83,71,61,-100,-100,-100,0,0,100,0.00,40.00,0,-999,0,0.00
2014-5-28,66,62,55,-100,-100,-100,0,0,100,0.00,40.00,0,-999,0,0.00
2014-5-29,62,56,51,-100,-100,-100,0,0,100,0.00,40.00,0,-999,0,0.00
2014-5-30,75,62,54,-100,-100,-100,0,0,100,0.00,40.00,0,-999,0,0.00
2014-5-31,72,61,47,-100,-100,-100,0,0,100,0.00,40.00,0,-999,0,0.00
2014-6-1,74,61,46,-100,-100,-100,0,0,100,0.00,40.00,0,-999,0,0.00
2014-6-2,79,65,47,-100,-100,-100,0,0,100,0.00,40.00,0,-999,0,0.00
2014-6-3,86,71,57,-100,-100,-100,0,0,100,0.00,40.00,0,-999,0,0.00
2014-6-4,80,70,59,-100,-100,-100,0,0,100,0.00,40.00,0,-999,0,0.00
2014-6-5,75,65,59,-100,-100,-100,0,0,100,0.00,40.00,0,-999,0,0.00
2014-6-6,73,64,56,-100,-100,-100,0,0,100,0.00,40.00,0,-999,0,0.00
2014-6-7,80,66,50,-100,-100,-100,0,0,100,0.00,40.00,0,-999,0,0.00
2014-6-8,81,68,53,-100,-100,-100,0,0,100,0.00,40.00,0,-999,0,0.00
2014-6-9,70,65,61,-100,-100,-100,0,0,100,0.00,40.00,0,-999,0,0.00
2014-6-10,76,70,65,-100,-100,-100,0,0,100,0.00,40.00,0,-999,0,0.00
2014-6-11,69,64,60,-100,-100,-100,0,0,100,0.00,40.00,0,-999,0,0.00
2014-6-12,69,64,60,-100,-100,-100,0,0,100,0.00,40.00,0,-999,0,0.00
2014-6-13,78,69,67,-100,-100,-100,0,0,100,0.00,40.00,0,-999,0,0.00
2014-6-14,69,65,59,-100,-100,-100,0,0,100,0.00,40.00,0,-999,0,0.00
2014-6-15,78,65,52,-100,-100,-100,0,0,100,0.00,40.00,0,-999,0,0.00
2014-6-16,82,67,52,-100,-100,-100,0,0,100,0.00,40.00,0,-999,0,0.00
2014-6-17,87,76,64,-100,-100,-100,0,0,100,0.00,40.00,0,-999,0,0.00
2014-6-18,88,79,70,-100,-100,-100,0,0,100,0.00,40.00,0,-999,0,0.00
2014-6-19,74,69,64,-100,-100,-100,0,0,100,0.00,40.00,0,-999,0,0.00
2014-6-20,77,66,51,-100,-100,-100,0,0,100,0.00,40.00,0,-999,0,0.00
2014-6-21,77,66,53,-100,-100,-100,0,0,100,0.00,40.00,0,-999,0,0.00
2014-6-22,76,68,57,-100,-100,-100,0,0,100,0.00,40.00,0,-999,0,0.00
2014-6-23,78,67,57,-100,-100,-100,0,0,100,0.00,40.00,0,-999,0,0.00
2014-6-24,81,70,58,-100,-100,-100,0,0,100,0.00,40.00,0,-999,0,0.00
2014-6-25,84,74,64,-100,-100,-100,0,0,100,0.00,40.00,0,-999,0,0.00
2014-6-26,79,72,68,-100,-100,-100,0,0,100,0.00,40.00,0,-999,0,0.00
2014-6-27,81,71,64,-100,-100,-100,0,0,100,0.00,40.00,0,-999,0,0.00
2014-6-28,81,71,58,-100,-100,-100,0,0,100,0.00,40.00,0,-999,0,0.00
2014-6-29,82,73,62,-100,-100,-100,0,0,100,0.00,40.00,0,-999,0,0.00
2014-6-30,82,72,62,-100,-100,-100,0,0,100,0.00,40.00,0,-999,0,0.00
2014-7-1,88,76,67,-100,-100,-100,0,0,100,0.00,40.00,0,-999,0,0.00
2014-7-2,90,77,71,-100,-100,-100,0,0,100,0.00,40.00,0,-999,0,0.00
2014-7-3,85,75,69,-100,-100,-100,0,0,100,0.00,40.00,0,-999,0,0.00
2014-7-4,70,67,63,-100,-100,-100,0,0,100,0.00,40.00,0,-999,0,0.00
2014-7-5,79,68,58,-100,-100,-100,0,0,100,0.00,40.00,0,-999,0,0.00
2014-7-6,82,68,54,-100,-100,-100,0,0,100,0.00,40.00,0,-999,0,0.00
2014-7-7,86,75,67,-100,-100,-100,0,0,100,0.00,40.00,0,-999,0,0.00
2014-7-8,87,78,68,-100,-100,-100,0,0,100,0.00,40.00,0,-999,0,0.00
2014-7-9,84,74,65,-100,-100,-100,0,0,100,0.00,40.00,0,-999,0,0.00
2014-7-10,80,72,64,-100,0,200,0,0,100,0.00,40.00,0,0,0,0.00
2014-7-11,81,71,62,-100,0,200,0,0,100,0.00,40.00,0,0,0,0.00
2014-7-12,84,73,61,-100,0,200,0,0,100,0.00,40.00,0,0,0,0.00
2014-7-13,83,74,68,-100,0,200,0,0,100,0.00,40.00,0,0,0,0.00
2014-7-14,81,74,70,-100,0,200,0,0,100,0.00,40.00,0,0,0,0.00
2014-7-15,77,60,37,-100,0,200,0,0,100,0.00,40.00,0,0,0,0.00
2014-7-16,78,68,37,-100,0,200,0,0,100,0.00,40.00,0,0,0,0.00
2014-7-17,77,66,59,-100,0,200,0,0,100,0.00,40.00,0,0,0,0.00
2014-7-18,77,65,54,-100,0,200,0,0,100,0.00,40.00,0,0,0,0.00
2014-7-19,76,67,61,-100,0,200,0,0,100,0.00,40.00,0,0,0,0.00
2014-7-20,77,70,62,-100,0,200,0,0,100,0.00,40.00,0,0,0,0.00
2014-7-21,78,69,59,-100,0,200,0,0,100,0.00,40.00,0,0,0,0.00
2014-7-22,83,73,62,-100,0,200,0,0,100,0.00,40.00,0,0,0,0.00
2014-7-23,87,76,66,-100,0,200,0,0,100,0.00,40.00,0,0,0,0.00
2014-7-24,77,69,62,-100,0,200,0,0,100,0.00,40.00,0,0,0,0.00
2014-7-25,77,64,55,-100,0,200,0,0,100,0.00,40.00,0,0,0,0.00
2014-7-26,78,68,59,-100,0,200,0,0,100,0.00,40.00,0,0,0,0.00
2014-7-27,84,74,68,-100,0,200,0,0,100,0.00,40.00,0,0,0,0.00
2014-7-28,78,71,65,-100,0,200,0,0,100,0.00,40.00,0,0,0,0.00
2014-7-29,71,64,58,-100,0,200,0,0,100,0.00,40.00,0,0,0,0.00
2014-7-30,75,63,51,-100,0,200,0,0,100,0.00,40.00,0,0,0,0.00
2014-7-31,78,66,55,-100,0,200,0,0,100,0.00,40.00,0,0,0,0.00
2014-8-1,78,67,60,-100,0,200,0,0,100,0.00,40.00,0,0,0,0.00
2014-8-2,75,69,65,-100,0,200,0,0,100,0.00,40.00,0,0,0,0.00
2014-8-3,72,68,64,-100,0,200,0,0,100,0.00,40.00,0,0,0,0.00
2014-8-4,78,71,66,-100,0,200,0,0,100,0.00,40.00,0,0,0,0.00
2014-8-5,84,73,60,-100,0,200,0,0,100,0.00,40.00,0,0,0,0.00
2014-8-6,79,71,62,-100,0,200,0,0,100,0.00,40.00,0,0,0,0.00
2014-8-7,78,72,59,-100,0,200,0,0,100,0.00,40.00,0,0,0,0.00
2014-8-8,77,64,52,-100,0,200,0,0,100,0.00,40.00,0,0,0,0.00
2014-8-9,81,68,54,-100,0,200,0,0,100,0.00,40.00,0,0,0,0.00
2014-8-10,83,67,56,-100,0,200,0,0,100,0.00,40.00,0,0,0,0.00
2014-8-11,81,68,58,-100,0,200,0,0,100,0.00,40.00,0,0,0,0.00
2014-8-12,74,70,66,-100,0,200,0,0,100,0.00,40.00,0,0,0,0.00
2014-8-13,80,72,67,-100,0,200,0,0,100,0.00,40.00,0,0,0,0.00
2014-8-14,74,64,55,-100,0,200,0,0,100,0.00,40.00,0,0,0,0.00
2014-8-15,69,61,50,-100,0,200,0,0,100,0.00,40.00,0,0,0,0.00
2014-8-16,75,62,50,-100,0,200,0,0,100,0.00,40.00,0,0,0,0.00
2014-8-17,79,67,58,-100,0,200,0,0,100,0.00,40.00,0,0,0,0.00
2014-8-18,78,65,54,-100,0,200,0,0,100,0.00,40.00,0,0,0,0.00
2014-8-19,81,69,53,-100,0,200,0,0,100,0.00,40.00,0,0,0,0.00
2014-8-20,81,73,65,-100,0,200,0,0,100,0.00,40.00,0,0,0,0.00
2014-8-21,79,71,64,-100,0,200,0,0,100,0.00,40.00,0,0,0,0.00
2014-8-22,72,68,64,-100,0,200,0,0,100,0.00,40.00,0,0,0,0.00
2014-8-23,67,65,63,-100,0,200,0,0,100,0.00,40.00,0,0,0,0.00
2014-8-24,77,67,60,-100,0,200,0,0,100,0.00,40.00,0,0,0,0.00
2014-8-25,82,69,54,-100,0,200,0,0,100,0.00,40.00,0,0,0,0.00
2014-8-26,82,70,57,-100,0,200,0,0,100,0.00,40.00,0,0,0,0.00
2014-8-27,85,74,60,-100,0,200,0,0,100,0.00,40.00,0,0,0,0.00
2014-8-28,75,70,59,-100,0,200,0,0,100,0.00,40.00,0,0,0,0.00
2014-8-29,74,63,51,-100,0,200,0,0,100,0.00,40.00,0,0,0,0.00
2014-8-30,74,65,52,-100,0,200,0,0,100,0.00,40.00,0,0,0,0.00
2014-8-31,84,73,66,-100,0,200,0,0,100,0.00,40.00,0,0,0,0.00
2014-9-1,84,76,70,-100,0,200,0,0,100,0.00,40.00,0,0,0,0.00
2014-9-2,88,76,67,-100,0,200,0,0,100,0.00,40.00,0,0,0,0.00
2014-9-3,78,72,63,-100,0,200,0,0,100,0.00,40.00,0,0,0,0.00
2014-9-4,84,70,56,-100,0,200,0,0,100,0.00,40.00,0,0,0,0.00
2014-9-5,82,72,63,-100,0,200,0,0,100,0.00,40.00,0,0,0,0.00
2014-9-6,86,75,64,-100,0,200,0,0,100,0.00,40.00,0,0,0,0.00
2014-9-7,76,66,57,-100,0,200,0,0,100,0.00,40.00,0,0,0,0.00
2014-9-8,73,62,52,-100,0,200,0,0,100,0.00,40.00,0,0,0,0.00
2014-9-9,73,64,57,-100,0,200,0,0,100,0.00,40.00,0,0,0,0.00
2014-9-10,76,68,62,-100,0,200,0,0,100,0.00,40.00,0,0,0,0.00
2014-9-11,79,70,65,-100,0,200,0,0,100,0.00,40.00,0,0,0,0.00
2014-9-12,72,63,57,-100,0,200,0,0,100,0.00,40.00,0,0,0,0.00
2014-9-13,63,58,51,-100,0,200,0,0,100,0.00,40.00,0,0,0,0.00
2014-9-14,65,55,47,-100,0,200,0,0,100,0.00,40.00,0,0,0,0.00
2014-9-15,67,54,42,-100,0,200,0,0,100,0.00,40.00,0,0,0,0.00
2014-9-16,68,58,49,-100,0,200,0,0,100,0.00,40.00,0,0,0,0.00
2014-9-17,69,56,43,-100,0,200,0,0,100,0.00,40.00,0,0,0,0.00
2014-9-18,71,56,44,-100,0,200,0,0,100,0.00,40.00,0,0,0,0.00
2014-9-19,65,56,48,-100,0,200,0,0,100,0.00,40.00,0,0,0,0.00
2014-9-20,74,63,52,-100,0,200,0,0,100,0.00,40.00,0,0,0,0.00
2014-9-21,76,68,62,-100,0,200,0,0,100,0.00,40.00,0,0,0,0.00
2014-9-22,66,61,48,-100,0,200,0,0,100,0.00,40.00,0,0,0,0.00
2014-9-23,68,53,40,-100,0,200,0,0,100,0.00,40.00,0,0,0,0.00
2014-9-24,70,57,45,-100,0,200,0,0,100,0.00,40.00,0,0,0,0.00
2014-9-25,61,58,55,-100,0,200,0,0,100,0.00,40.00,0,0,0,0.00
2014-9-26,73,58,47,-100,0,200,0,0,100,0.00,40.00,0,0,0,0.00
2014-9-27,79,60,47,-100,0,200,0,0,100,0.00,40.00,0,0,0,0.00
2014-9-28,81,63,50,-100,0,200,0,0,100,0.00,40.00,0,0,0,0.00
2014-9-29,77,64,56,-100,0,200,0,0,100,0.00,40.00,0,0,0,0.00
2014-9-30,76,64,55,-100,0,200,0,0,100,0.00,40.00,0,0,0,0.00
2014-10-1,67,62,56,-100,0,200,0,0,100,0.00,40.00,0,0,0,0.00
2014-10-2,67,62,59,-100,0,200,0,0,100,0.00,40.00,0,0,0,0.00
2014-10-3,70,62,56,-100,0,200,0,0,100,0.00,40.00,0,0,0,0.00
2014-10-4,66,59,48,-100,0,200,0,0,100,0.00,40.00,0,0,0,0.00
2014-10-5,55,46,37,-100,0,200,0,0,100,0.00,40.00,0,0,0,0.00
2014-10-6,69,54,37,-100,0,200,0,0,100,0.00,40.00,0,0,0,0.00
2014-10-7,71,60,55,-100,0,200,0,0,100,0.00,40.00,0,0,0,0.00
2014-10-8,70,62,56,-100,0,200,0,0,100,0.00,40.00,0,0,0,0.00
2014-10-9,66,54,42,-100,0,200,0,0,100,0.00,40.00,0,0,0,0.00
2014-10-10,59,51,39,-100,0,200,0,0,100,0.00,40.00,0,0,0,0.00
2014-10-11,52,50,42,-100,0,200,0,0,100,0.00,40.00,0,0,0,0.00
2014-10-12,61,46,35,-100,0,200,0,0,100,0.00,40.00,0,0,0,0.00
2014-10-13,60,54,41,-100,0,200,0,0,100,0.00,40.00,0,0,0,0.00
2014-10-14,75,68,60,-100,0,200,0,0,100,0.00,40.00,0,0,0,0.00
2014-10-15,73,70,68,-100,0,200,0,0,100,0.00,40.00,0,0,0,0.00
2014-10-16,69,64,55,-100,0,200,0,0,100,0.00,40.00,0,0,0,0.00
2014-10-17,69,60,53,-100,0,200,0,0,100,0.00,40.00,0,0,0,0.00
2014-10-18,67,57,49,-100,0,200,0,0,100,0.00,40.00,0,0,0,0.00
2014-10-19,53,48,37,-100,0,200,0,0,100,0.00,40.00,0,0,0,0.00
2014-10-20,60,45,31,-100,0,200,0,0,100,0.00,40.00,0,0,0,0.00
2014-10-21,65,54,48,-100,0,200,0,0,100,0.00,40.00,0,0,0,0.00
2014-10-22,54,53,50,-100,0,200,0,0,100,0.00,40.00,0,0,0,0.00
2014-10-23,52,51,50,-100,0,200,0,0,100,0.00,40.00,0,0,0,0.00
2014-10-24,67,56,50,-100,0,200,0,0,100,0.00,40.00,0,0,0,0.00
2014-10-25,66,52,38,-100,0,200,0,0,100,0.00,40.00,0,0,0,0.00
2014-10-26,61,54,47,-100,0,200,0,0,100,0.00,40.00,0,0,0,0.00
2014-10-27,63,50,42,-100,0,200,0,0,100,0.00,40.00,0,0,0,0.00
2014-10-28,72,53,40,-100,0,200,0,0,100,0.00,40.00,0,0,0,0.00
2014-10-29,65,53,47,-100,0,200,0,0,100,0.00,40.00,0,0,0,0.00
2014-10-30,56,47,36,-100,0,200,0,0,100,0.00,40.00,0,0,0,0.00
2014-10-31,50,41,29,-100,0,200,0,0,100,0.00,40.00,0,0,0,0.00
2014-11-1,48,45,42,-100,0,200,0,0,100,0.00,40.00,0,0,0,0.00
2014-11-2,46,42,38,-100,0,200,0,0,100,0.00,40.00,0,0,0,0.00
2014-11-3,59,45,37,-100,0,200,0,0,100,0.00,40.00,0,0,0,0.00
2014-11-4,69,54,42,-100,0,200,0,0,100,0.00,40.00,0,0,0,0.00
2014-11-5,60,50,42,-100,0,200,0,0,100,0.00,40.00,0,0,0,0.00
2014-11-6,49,46,43,-100,0,200,0,0,100,0.00,40.00,0,0,0,0.00
2014-11-7,49,44,36,-100,0,200,0,0,100,0.00,40.00,0,0,0,0.00
2014-11-8,47,38,28,-100,0,200,0,0,100,0.00,40.00,0,0,0,0.00
2014-11-9,55,43,32,-100,0,200,0,0,100,0.00,40.00,0,0,0,0.00
2014-11-10,60,42,29,-100,0,200,0,0,100,0.00,40.00,0,0,0,0.00
2014-11-11,65,48,32,-100,0,200,0,0,100,0.00,40.00,0,0,0,0.00
2014-11-12,63,51,38,-100,0,200,0,0,100,0.00,40.00,0,0,0,0.00
2014-11-13,44,37,29,-100,0,200,0,0,100,0.00,40.00,0,0,0,0.00
2014-11-14,39,33,26,-100,0,200,0,0,100,0.00,40.00,0,0,0,0.00
2014-11-15,40,30,23,-100,0,200,0,0,100,0.00,40.00,0,0,0,0.00
2014-11-16,39,33,22,-100,0,200,0,0,100,0.00,40.00,0,0,0,0.00
2014-11-17,43,39,36,-100,0,200,0,0,100,0.00,40.00,0,0,0,0.00
2014-11-18,40,27,21,-100,0,200,0,0,100,0.00,40.00,0,0,0,0.00
2014-11-19,30,23,18,-100,0,200,0,0,100,0.00,40.00,0,0,0,0.00
2014-11-20,42,31,21,-100,0,200,0,0,100,0.00,40.00,0,0,0,0.00
2014-11-21,35,27,18,-100,0,200,0,0,100,0.00,40.00,0,0,0,0.00
2014-11-22,41,29,14,-100,0,200,0,0,100,0.00,40.00,0,0,0,0.00
2014-11-23,56,41,30,-100,0,200,0,0,100,0.00,40.00,0,0,0,0.00
2014-11-24,70,62,45,-100,0,200,0,0,100,0.00,40.00,0,0,0,0.00
2014-11-25,64,50,34,-100,0,200,0,0,100,0.00,40.00,0,0,0,0.00
2014-11-26,41,35,33,-100,0,200,0,0,100,0.00,40.00,0,0,0,0.00
2014-11-27,35,32,26,-100,0,200,0,0,100,0.00,40.00,0,0,0,0.00
2014-11-28,32,26,17,-100,0,200,0,0,100,0.00,40.00,0,0,0,0.00
2014-11-29,31,24,15,-100,0,200,0,0,100,0.00,40.00,0,0,0,0.00
2014-11-30,40,36,32,-100,0,200,0,0,100,0.00,40.00,0,0,0,0.00
2014-12-1,60,42,33,-100,0,200,0,0,100,0.00,40.00,0,0,0,0.00
2014-12-2,41,35,31,-100,0,200,0,0,100,0.00,40.00,0,0,0,0.00
2014-12-3,42,41,40,-100,0,200,0,0,100,0.00,40.00,0,0,0,0.00
2014-12-4,42,34,29,-100,0,200,0,0,100,0.00,40.00,0,0,0,0.00
2014-12-5,38,32,25,-100,0,200,0,0,100,0.00,40.00,0,0,0,0.00
2014-12-6,44,39,35,-100,0,200,0,0,100,0.00,40.00,0,0,0,0.00
2014-12-7,42,36,29,-100,0,200,0,0,100,0.00,40.00,0,0,0,0.00
2014-12-8,33,27,22,-100,0,200,0,0,100,0.00,40.00,0,0,0,0.00
2014-12-9,40,36,32,-100,0,200,0,0,100,0.00,40.00,0,0,0,0.00
2014-12-10,41,36,30,-100,0,200,0,0,100,0.00,40.00,0,0,0,0.00
2014-12-11,34,31,29,-100,0,200,0,0,100,0.00,40.00,0,0,0,0.00
2014-12-12,35,33,31,-100,0,200,0,0,100,0.00,40.00,0,0,0,0.00
2014-12-13,40,36,33,-100,0,200,0,0,100,0.00,40.00,0,0,0,0.00
2014-12-14,44,40,36,-100,0,200,0,0,100,0.00,40.00,0,0,0,0.00
2014-12-15,45,38,29,-100,0,200,0,0,100,0.00,40.00,0,0,0,0.00
2014-12-16,46,39,29,-100,0,200,0,0,100,0.00,40.00,0,0,0,0.00
2014-12-17,49,44,37,-100,0,200,0,0,100,0.00,40.00,0,0,0,0.00
2014-12-18,40,36,33,-100,0,200,0,0,100,0.00,40.00,0,0,0,0.00
2014-12-19,36,34,31,-100,0,200,0,0,100,0.00,40.00,0,0,0,0.00
2014-12-20,32,30,29,-100,0,200,0,0,100,0.00,40.00,0,0,0,0.00
2014-12-21,34,32,30,-100,0,200,0,0,100,0.00,40.00,0,0,0,0.00
2014-12-22,42,36,32,-100,0,200,0,0,100,0.00,40.00,0,0,0,0.00
2014-12-23,46,45,43,-100,0,200,0,0,100,0.00,40.00,0,0,0,0.00
2014-12-24,53,48,45,-100,0,200,0,0,100,0.00,40.00,0,0,0,0.00
2014-12-25,62,49,40,-100,0,200,0,0,100,0.00,40.00,0,0,0,0.00
2014-12-26,47,36,29,-100,0,200,0,0,100,0.00,40.00,0,0,0,0.00
2014-12-27,53,37,28,-100,0,200,0,0,100,0.00,40.00,0,0,0,0.00
2014-12-28,52,42,34,-100,0,200,0,0,100,0.00,40.00,0,0,0,0.00
2014-12-29,41,34,25,-100,0,200,0,0,100,0.00,40.00,0,0,0,0.00
2014-12-30,32,27,22,-100,0,200,0,0,100,0.00,40.00,0,0,0,0.00
2014-12-31,29,23,15,-100,0,200,0,0,100,0.00,40.00,0,0,0,0.00
2015-1-1,37,24,12,-100,0,200,0,0,100,0.00,40.00,0,0,0,0.00
2015-1-2,40,30,23,-100,0,200,0,0,100,0.00,40.00,0,0,0,0.00